Home   Weather   Jaén   Past weeks

Flag for Spain Past Weather in Jaén, Spain — Yesterday and Last 2 Weeks

Now
73 °F

Passing clouds.


Feels Like: 77 °F
Forecast: 55 / 88 °F
Wind: 1 mph from North

Location: Granada / Aeropuerto

Current Time: Sep 26, 2016 at 12:41:29 PM

Latest Report: Sep 26, 2016 at 12:00 PM


Visibility: N/A

Pressure: 30.15 "Hg (28.25 "Hg at 565m altitude)

Humidity: 41%

Dew Point: 48 °F

Location of JaénLocation

Past Weather in Jaén — Graph

°F

Jaén Temperature Yesterday

Maximum temperature yesterday: 86 °F (at 4:00 PM)
Minimum temperature yesterday: 55 °F (at 6:00 AM)
Average temperature yesterday: 70 °F

High & Low Weather Summary for the Past Weeks

 TemperatureHumidityPressure
High95 °F (Sep 11, 4:30 PM)100% (Sep 14, 4:00 AM)30.24 "Hg (Sep 14, 4:00 AM)
Low45 °F (Sep 15, 6:00 AM)17% (Sep 11, 2:30 PM)29.92 "Hg (Sep 12, 7:00 PM)
Average69 °F50%30.10 "Hg
* Reported Sep 11 11:00 AM — Sep 26 11:30 AM, Jaén, Weather by CustomWeather, © 2016

Note: Actual official high and low records may vary slightly from our data, if they occured in-between our weather recording intervals... More about our weather records

Advertising

Jaén Weather History for the Previous 24 Hours

Scroll right to see more
 ConditionsComfort  
Time TempWeatherWind HumidityBarometerVisibility
11:30 AM
Mon, Sep 26
72 °FPassing clouds.No wind44%30.18 "HgN/A
11:00 AM66 °FPassing clouds.2 mph52%30.18 "HgN/A
10:30 AM64 °FScattered clouds.1 mph52%30.15 "HgN/A
10:00 AM63 °FScattered clouds.1 mph59%30.15 "HgN/A
9:30 AM61 °FScattered clouds.1 mph63%30.15 "HgN/A
9:00 AM59 °FScattered clouds.2 mph59%30.12 "HgN/A
8:30 AM57 °FPassing clouds.No wind63%30.12 "HgN/A
8:00 AM57 °FClear.1 mph63%30.12 "Hg10 mi
7:30 AM59 °FClear.No wind59%30.12 "Hg10 mi
7:00 AM59 °FClear.No wind59%30.12 "Hg10 mi
6:30 AM59 °FClear.1 mph55%30.12 "Hg10 mi
6:00 AM59 °FClear.2 mph51%30.12 "Hg10 mi
5:30 AM59 °FClear.1 mph55%30.12 "Hg10 mi
5:00 AM61 °FClear.1 mph48%30.12 "Hg10 mi
4:30 AM61 °FClear.2 mph52%30.12 "Hg10 mi
4:00 AM61 °FClear.No wind48%30.12 "Hg10 mi
3:30 AM59 °FClear.No wind51%30.12 "Hg10 mi
3:00 AM61 °FClear.1 mph48%30.12 "Hg10 mi
2:30 AM61 °FRefreshingly cool.1 mph45%30.12 "HgN/A
2:00 AM63 °FMild.1 mph45%30.15 "HgN/A
1:30 AM63 °FMild.No wind49%30.15 "HgN/A
1:00 AM64 °FMild.No wind46%30.15 "HgN/A
12:30 AM64 °FMild.No wind43%30.15 "HgN/A
12:00 AM66 °FMild.No wind37%30.15 "HgN/A
11:30 PM
Sun, Sep 25
68 °FClear.1 mph40%30.15 "Hg10 mi
11:00 PM70 °FClear.No wind43%30.15 "Hg10 mi
10:30 PM72 °FClear.No wind33%30.15 "Hg10 mi
10:00 PM73 °FClear.2 mph33%30.12 "Hg10 mi
9:30 PM75 °FClear.5 mph39%30.12 "Hg10 mi
9:00 PM77 °FPassing clouds.5 mph34%30.12 "HgN/A
8:30 PM81 °FPassing clouds.6 mph30%30.09 "HgN/A
8:00 PM81 °FPassing clouds.8 mph30%30.09 "HgN/A
7:30 PM82 °FPassing clouds.8 mph28%30.09 "HgN/A
7:00 PM86 °FPassing clouds.3 mph24%30.07 "HgN/A
6:30 PM86 °FPassing clouds.2 mph24%30.07 "HgN/A
6:00 PM86 °FPassing clouds.3 mph24%30.07 "HgN/A
5:30 PM86 °FPassing clouds.2 mph24%30.09 "HgN/A
5:00 PM86 °FPassing clouds.7 mph25%30.09 "HgN/A
4:30 PM86 °FPassing clouds.5 mph25%30.09 "HgN/A
4:00 PM86 °FPassing clouds.8 mph25%30.09 "HgN/A
3:30 PM84 °FPassing clouds.5 mph29%30.09 "HgN/A
3:00 PM84 °FPassing clouds.1 mph31%30.12 "HgN/A
2:30 PM82 °FPassing clouds.3 mph32%30.12 "HgN/A
2:00 PM82 °FPassing clouds.2 mph32%30.15 "HgN/A
1:30 PM81 °FPassing clouds.No wind37%30.15 "HgN/A
1:00 PM79 °FPassing clouds.1 mph42%30.18 "HgN/A
12:30 PM77 °FPassing clouds.No wind44%30.18 "HgN/A
12:00 PM73 °FSunny.No wind53%30.18 "Hg10 mi
Weather by CustomWeather, © 2016

See weather overviewHow to use our weather pages